Location: Unspecified
(49.8670°N, 0.0000°E)
Time: 18:58:56
(UTC+00:00)

A-11 Canister half - All Passes

Search period start: 17 June 2019 00:00
Search period end: 27 June 2019 00:00
Orbit: 1525 x 1684 km, 47.3° (Epoch: 16 June)

Date Brightness Start Highest point End Pass type
(mag) Time Alt. Az. Time Alt. Az. Time Alt. Az.
17 Jun - 04:37:04 10° S 04:44:26 27° SE 04:51:43 10° E daylight
17 Jun - 06:38:56 10° SW 06:48:03 60° SSE 06:57:07 10° E daylight
17 Jun - 08:43:20 10° W 08:52:37 77° S 09:01:59 10° E daylight
17 Jun - 10:48:10 10° W 10:57:12 58° SSW 11:06:23 10° SE daylight
17 Jun - 12:53:35 10° W 13:00:48 26° SW 13:08:09 10° S daylight
18 Jun - 04:15:41 10° S 04:22:54 26° SE 04:30:02 10° E daylight
18 Jun - 06:17:23 10° SW 06:26:28 58° SSE 06:35:30 10° E daylight
18 Jun - 08:21:43 10° W 08:31:01 77° S 08:40:22 10° E daylight
18 Jun - 10:26:33 10° W 10:35:37 60° SSW 10:44:48 10° SE daylight
18 Jun - 12:31:55 10° W 12:39:16 27° SW 12:46:45 10° S daylight
19 Jun - 03:54:19 10° S 04:01:22 24° SE 04:08:19 10° E daylight
19 Jun - 05:55:49 10° SW 06:04:53 57° SSE 06:13:52 10° E daylight
19 Jun - 08:00:06 10° W 08:09:24 77° S 08:18:45 10° E daylight
19 Jun - 10:04:56 10° W 10:14:01 61° SSW 10:23:13 10° SE daylight
19 Jun - 12:10:13 10° W 12:17:44 28° SW 12:25:21 10° S daylight
20 Jun - 03:32:58 10° S 03:39:50 23° SE 03:46:37 10° E daylight
20 Jun - 05:34:15 10° SW 05:43:18 55° SSE 05:52:16 10° E daylight
20 Jun - 07:38:29 10° W 07:47:48 77° S 07:57:07 10° E daylight
20 Jun - 09:43:19 10° W 09:52:26 63° SSW 10:01:38 10° ESE daylight
20 Jun - 11:48:33 10° W 11:56:11 30° SW 12:03:56 10° SSE daylight
21 Jun - 03:11:38 10° S 03:18:18 22° SE 03:24:54 10° E daylight
21 Jun - 05:12:41 10° SW 05:21:43 54° SSE 05:30:39 10° E daylight
21 Jun - 07:16:52 10° W 07:26:11 77° S 07:35:30 10° E daylight
21 Jun - 09:21:42 10° W 09:30:51 64° SSW 09:40:03 10° ESE daylight
21 Jun - 11:26:54 10° W 11:34:39 31° SW 11:42:30 10° SSE daylight
22 Jun - 02:50:18 10° S 02:56:46 21° SE 03:03:09 10° E visible
22 Jun - 04:51:08 10° SW 05:00:08 52° SSE 05:09:01 10° E daylight
22 Jun - 06:55:15 10° WSW 07:04:35 77° S 07:13:52 10° E daylight
22 Jun - 09:00:05 10° W 09:09:15 65° SSW 09:18:28 10° ESE daylight
22 Jun - 11:05:13 10° W 11:13:06 32° SW 11:21:04 10° SSE daylight
23 Jun - 02:29:01 10° S 02:35:15 20° SE 02:41:24 10° E visible
23 Jun - 04:29:35 10° SW 04:38:34 51° SSE 04:47:25 10° E daylight
23 Jun - 06:33:37 10° WSW 06:42:58 76° S 06:52:16 10° E daylight
23 Jun - 08:38:28 10° W 08:47:39 66° SSW 08:56:52 10° ESE daylight
23 Jun - 10:43:34 10° W 10:51:33 34° SW 10:59:37 10° SSE daylight
24 Jun - 02:07:45 10° S 02:13:44 19° SE 02:19:38 10° E visible
24 Jun - 04:08:02 10° SW 04:16:59 49° SSE 04:25:48 10° E daylight
24 Jun - 06:12:00 10° WSW 06:21:22 76° S 06:30:39 10° E daylight
24 Jun - 08:16:51 10° W 08:26:04 68° SSW 08:35:17 10° ESE daylight
24 Jun - 10:21:55 10° W 10:30:00 35° SW 10:38:10 10° SSE daylight
25 Jun - 01:46:29 10° SSE 01:52:12 18° SE 01:57:50 10° E visible
25 Jun - 03:46:30 10° SW 03:55:24 48° SSE 04:04:10 10° E daylight
25 Jun - 05:50:23 10° WSW 05:59:45 75° S 06:09:01 10° E daylight
25 Jun - 07:55:13 10° W 08:04:27 69° SSW 08:13:41 10° ESE daylight
25 Jun - 10:00:16 10° W 10:08:27 36° SW 10:16:42 10° SSE daylight
26 Jun - 01:25:16 10° SSE 01:30:41 17° SE 01:36:01 10° E visible
26 Jun - 03:24:56 10° SW 03:33:50 46° SSE 03:42:33 10° E daylight
26 Jun - 05:28:46 10° WSW 05:38:09 75° S 05:47:25 10° E daylight
26 Jun - 07:33:36 10° W 07:42:52 70° SSW 07:52:05 10° ESE daylight
26 Jun - 09:38:37 10° W 09:46:53 38° SW 09:55:13 10° SSE daylight
26 Jun - 11:47:36 10° WSW 11:49:39 11° WSW 11:51:43 10° SW daylight
